DW7995 Weather Reports


Display with metric or nautical units.
time (UTC)temp
F
wind
direction
speed
MPH
gust
MPH
rain 1hr
in
rain 24hr
in
rain mn
in
humidity
%
barometer
mb
20260503002039 58 0 0.0 1.0 0.00 0.06 0.02 53 1021.2
20260503001547 58 0 0.0 2.0 0.00 0.06 0.02 54 1021.2
20260503001039 58 0 0.0 2.0 0.00 0.06 0.02 53 1021.2
20260503000538 58 0 0.0 2.0 0.00 0.06 0.02 53 1021.2
20260503000050 58 0 0.0 3.0 0.00 0.06 0.02 53 1021.2
20260502235538 58 0 0.0 4.0 0.00 0.06 0.02 53 1021.2
20260502235038 58 0 0.0 7.0 0.00 0.06 0.02 53 1021.2
20260502234547 58 0 2.0 7.0 0.00 0.06 0.02 53 1021.2
20260502234040 59 0 0.0 7.0 0.00 0.06 0.02 52 1021.2
20260502233540 58 0 0.0 7.0 0.00 0.06 0.02 53 1021.2
20260502233045 58 0 2.0 7.0 0.00 0.06 0.02 52 1021.2
20260502232540 59 89 1.0 6.0 0.00 0.06 0.02 53 1021.2
20260502232039 59 75 0.0 4.0 0.00 0.06 0.02 52 1021.2
20260502231548 59 0 0.0 4.0 0.00 0.06 0.02 51 1021.2
20260502231039 58 0 0.0 2.0 0.00 0.06 0.02 52 1021.2
20260502230540 58 0 0.0 3.0 0.00 0.06 0.02 53 1021.2
20260502230047 58 0 0.0 3.0 0.00 0.06 0.02 52 1021.2
20260502225538 59 0 0.0 3.0 0.00 0.06 0.02 52 1021.2
20260502225038 59 157 0.0 3.0 0.00 0.06 0.02 52 1021.2
20260502224546 59 0 0.0 5.0 0.00 0.06 0.02 51 1021.2
20260502224038 59 0 0.0 5.0 0.00 0.06 0.02 51 1021.2
20260502223539 59 0 0.0 3.0 0.00 0.06 0.02 51 1021.2
20260502223048 59 0 0.0 2.0 0.00 0.06 0.02 51 1021.2
20260502222542 59 145 0.0 4.0 0.00 0.06 0.02 51 1021.2
20260502222040 58 0 0.0 4.0 0.00 0.06 0.02 51 1021.2
20260502221548 58 97 0.0 4.0 0.00 0.06 0.02 51 1021.2
20260502221038 58 220 0.0 3.0 0.00 0.06 0.02 51 1021.2
20260502220542 59 0 1.0 4.0 0.00 0.06 0.02 51 1021.2
20260502220046 59 0 0.0 6.0 0.00 0.06 0.02 51 1021.2
20260502215540 59 0 1.0 6.0 0.00 0.06 0.02 52 1021.2
20260502215039 59 0 0.0 6.0 0.00 0.06 0.02 53 1021.2
20260502214608 59 105 0.0 8.0 0.00 0.06 0.02 51 1021.2
20260502214039 59 141 0.0 8.0 0.00 0.06 0.02 51 1021.2
20260502213542 59 61 0.0 7.0 0.00 0.06 0.02 51 1021.2
20260502213054 60 0 1.0 7.0 0.00 0.06 0.02 50 1021.2
20260502212539 61 160 1.0 5.0 0.00 0.06 0.02 49 1021.2
20260502212039 61 0 0.0 5.0 0.00 0.06 0.02 47 1021.2
20260502211603 62 161 1.0 8.0 0.00 0.06 0.02 48 1021.2
20260502211039 61 0 1.0 10.0 0.00 0.06 0.02 47 1021.2
20260502210539 61 0 4.0 10.0 0.00 0.06 0.02 48 1021.2
20260502210054 61 215 3.0 10.0 0.00 0.06 0.02 48 1021.2
20260502205538 61 143 3.0 9.0 0.00 0.06 0.02 48 1021.2
20260502205038 61 0 2.0 9.0 0.00 0.06 0.02 49 1021.2
20260502204552 61 0 2.0 9.0 0.00 0.06 0.02 50 1021.2
20260502204039 61 64 1.0 9.0 0.00 0.06 0.02 48 1021.2
20260502203539 60 0 2.0 9.0 0.00 0.06 0.02 49 1021.2
20260502203056 60 124 4.0 9.0 0.00 0.06 0.02 49 1021.2
20260502202539 59 0 0.0 7.0 0.00 0.06 0.02 48 1021.2
20260502202039 60 104 1.0 7.0 0.00 0.06 0.02 48 1021.2
20260502201601 60 165 3.0 9.0 0.00 0.06 0.02 49 1021.2
20260502201040 59 0 1.0 9.0 0.00 0.06 0.02 50 1021.2
20260502200538 59 150 2.0 9.0 0.00 0.06 0.02 47 1021.2
20260502200048 59 121 0.0 7.0 0.00 0.06 0.02 49 1021.2
20260502195539 60 136 0.0 9.0 0.00 0.06 0.02 49 1021.2
20260502195038 59 0 0.0 9.0 0.00 0.06 0.02 49 1021.2
20260502194543 59 211 2.0 8.0 0.00 0.06 0.02 50 1021.2
20260502194040 58 0 1.0 8.0 0.00 0.06 0.02 50 1021.2
20260502193539 58 81 1.0 10.0 0.00 0.06 0.02 52 1021.2
20260502193050 58 160 1.0 10.0 0.00 0.06 0.02 50 1021.2
20260502192538 58 214 1.0 7.0 0.00 0.06 0.02 50 1021.2
20260502192039 58 0 1.0 8.0 0.00 0.06 0.02 51 1021.2
20260502191547 57 0 0.0 10.0 0.00 0.06 0.02 52 1021.2
20260502191039 57 0 3.0 10.0 0.00 0.06 0.02 53 1021.2
20260502190539 56 99 0.0 9.0 0.00 0.06 0.02 53 1021.2
20260502190046 57 0 2.0 9.0 0.00 0.06 0.02 51 1021.2
20260502185540 57 122 2.0 9.0 0.00 0.06 0.02 54 1021.2
20260502185039 56 80 3.0 9.0 0.00 0.06 0.02 52 1021.2
20260502184545 57 0 3.0 9.0 0.00 0.06 0.02 52 1021.2
20260502184040 56 252 0.0 8.0 0.00 0.06 0.02 54 1021.2
20260502183539 56 102 1.0 13.0 0.00 0.06 0.02 58 1021.2
20260502183052 55 266 0.0 13.0 0.00 0.06 0.02 56 1021.2
20260502182539 55 154 2.0 13.0 0.00 0.06 0.02 56 1021.2
20260502182038 55 0 5.0 13.0 0.00 0.06 0.02 53 1021.2
20260502181546 55 230 3.0 8.0 0.00 0.06 0.02 52 1021.2
20260502181041 55 127 0.0 10.0 0.00 0.06 0.02 55 1021.2
20260502180538 55 182 2.0 10.0 0.00 0.06 0.02 55 1021.2
20260502164039 52 157 0.0 9.0 0.00 0.22 0.02 54 1021.2
20260502163538 52 92 2.0 11.0 0.00 0.22 0.02 52 1021.2
20260502163105 52 203 2.0 11.0 0.00 0.22 0.02 52 1021.2
20260502162538 52 62 2.0 9.0 0.00 0.22 0.02 51 1021.2
20260502162038 52 171 2.0 9.0 0.00 0.22 0.02 51 1021.2
20260502161551 52 151 4.0 9.0 0.00 0.22 0.02 51 1021.2
20260502161038 52 44 2.0 7.0 0.00 0.22 0.02 56 1021.2
20260502160539 52 145 2.0 9.0 0.00 0.22 0.02 54 1021.2
20260502152038 50 150 2.0 7.0 0.00 0.22 0.02 56 1021.2
20260502151556 49 115 3.0 8.0 0.00 0.22 0.02 54 1021.2
20260502151039 49 185 2.0 8.0 0.00 0.22 0.02 55 1021.2
20260502150538 49 171 1.0 6.0 0.00 0.22 0.02 56 1021.2
20260502130539 40 0 0.0 1.0 0.00 0.25 0.02 96 1021.2
20260502123539 39 0 0.0 2.0 0.00 0.40 0.02 96 1021.2
20260502123044 38 0 0.0 5.0 0.00 0.40 0.02 96 1021.2
20260502122539 38 61 0.0 6.0 0.00 0.40 0.02 96 1021.2
20260502122040 38 0 1.0 6.0 0.00 0.40 0.02 96 1021.2
20260502121547 38 0 1.0 6.0 0.00 0.40 0.02 96 1021.2
20260502121040 37 0 0.0 3.0 0.00 0.40 0.02 96 1021.2
20260502120536 37 0 0.0 2.0 0.00 0.40 0.02 96 1021.2
20260502115539 38 0 0.0 4.0 0.00 0.44 0.02 96 1021.2
20260502115039 38 0 0.0 4.0 0.00 0.44 0.02 96 1021.2
20260502114625 38 75 0.0 3.0 0.00 0.44 0.02 96 1021.2
20260502114038 38 99 0.0 3.0 0.00 0.44 0.02 96 1021.2
20260502113541 39 98 0.0 3.0 0.00 0.44 0.02 96 1021.2
20260502113044 39 0 0.0 0.0 0.00 0.44 0.02 96 1021.2
20260502112539 40 0 0.0 0.0 0.00 0.44 0.02 96 1021.2
20260502112037 40 0 0.0 0.0 0.00 0.44 0.02 96 1021.2
20260502111546 40 0 0.0 7.0 0.00 0.44 0.02 96 1021.2
20260502111042 40 0 1.0 7.0 0.00 0.44 0.02 96 1021.2
20260502110541 40 0 2.0 7.0 0.00 0.44 0.02 96 1021.2
20260502110047 41 98 0.0 4.0 0.00 0.44 0.02 96 1021.2
20260502105540 41 0 0.0 8.0 0.00 0.44 0.02 96 1021.2
20260502105038 41 78 2.0 8.0 0.00 0.44 0.02 96 1021.2
20260502104547 41 105 0.0 8.0 0.00 0.44 0.02 96 1021.2
20260502104038 41 148 2.0 8.0 0.00 0.44 0.02 96 1021.2
20260502103538 41 129 1.0 8.0 0.00 0.44 0.02 96 1021.2
20260502103043 42 62 0.0 5.0 0.00 0.44 0.02 96 1021.2
20260502102538 41 59 0.0 5.0 0.00 0.44 0.02 96 1021.2
20260502102036 41 70 1.0 4.0 0.00 0.44 0.02 96 1021.2
20260502101600 41 0 0.0 4.0 0.00 0.44 0.02 96 1021.2
20260502101038 41 0 0.0 5.0 0.01 0.44 0.02 96 1021.2
20260502100538 41 0 0.0 5.0 0.01 0.44 0.02 96 1021.2
20260502091040 42 0 0.0 4.0 0.00 0.43 0.01 96 1021.2
20260502090542 42 0 1.0 4.0 0.01 0.43 0.01 96 1021.2
20260502071039 43 53 0.0 7.0 0.00 0.42 0.00 96 1021.2
20260502070539 43 0 0.0 6.0 0.00 0.42 0.00 96 1021.2
20260502070059 43 0 0.0 4.0 0.00 0.42 0.00 96 1021.2
20260502065539 43 0 0.0 4.0 0.00 0.42 0.00 96 1021.2
20260502065038 43 70 0.0 4.0 0.00 0.42 0.00 96 1021.2
20260502064614 43 0 0.0 5.0 0.00 0.42 0.00 96 1021.2
20260502064038 43 88 0.0 5.0 0.00 0.42 0.00 96 1021.2
20260502063540 43 114 0.0 5.0 0.00 0.42 0.00 96 1021.2
20260502063101 43 0 0.0 3.0 0.00 0.42 0.00 96 1021.2
20260502062540 43 28 0.0 9.0 0.00 0.42 0.00 96 1021.2
20260502062040 43 0 0.0 9.0 0.00 0.42 0.00 96 1021.2
20260502061546 43 76 0.0 3.0 0.00 0.42 0.00 96 1021.2
20260502061040 43 0 0.0 5.0 0.00 0.42 0.00 96 1021.2
20260502060542 43 0 0.0 6.0 0.00 0.42 0.00 96 1021.2
20260502060049 43 72 0.0 6.0 0.00 0.42 0.00 96 1021.2
20260502055542 43 91 1.0 6.0 0.00 0.42 0.00 96 1021.2
20260502055040 43 84 0.0 6.0 0.00 0.42 0.00 96 1021.2
20260502054552 43 72 1.0 7.0 0.00 0.42 0.00 95 1021.2
20260502054038 43 72 2.0 10.0 0.00 0.42 0.00 95 1021.2
20260502053539 43 61 3.0 11.0 0.00 0.42 0.00 95 1021.2
20260502053056 43 67 2.0 11.0 0.00 0.42 0.00 95 1021.2
20260502052539 43 75 2.0 11.0 0.00 0.42 0.00 95 1021.2
20260502052039 43 19 1.0 9.0 0.00 0.42 0.00 95 1021.2
20260502051550 43 43 3.0 9.0 0.00 0.42 0.00 95 1021.2
20260502051041 43 60 1.0 10.0 0.00 0.42 0.00 95 1021.2
20260502050539 43 64 2.0 10.0 0.00 0.42 0.00 95 1021.2
20260502050055 43 0 2.0 12.0 0.00 0.42 0.00 95 1021.2
20260502045540 43 309 2.0 13.0 0.00 0.42 0.42 95 1021.2
20260502045040 43 82 5.0 13.0 0.00 0.42 0.42 95 1021.2
20260502044557 43 75 4.0 12.0 0.00 0.42 0.42 95 1021.2
20260502044040 44 0 3.0 11.0 0.00 0.42 0.42 95 1021.2
20260502043540 44 60 3.0 11.0 0.00 0.42 0.42 95 1021.2
20260502043124 44 51 3.0 9.0 0.00 0.42 0.42 95 1021.2
20260502042539 44 0 1.0 8.0 0.00 0.42 0.42 95 1021.2
20260502042039 44 58 2.0 8.0 0.00 0.42 0.42 95 1021.2
20260502041601 44 0 2.0 9.0 0.00 0.42 0.42 95 1021.2
20260502041041 45 45 1.0 9.0 0.00 0.42 0.42 95 1021.2
20260502040542 45 0 1.0 10.0 0.00 0.42 0.42 95 1021.2
20260502040048 45 0 3.0 10.0 0.01 0.42 0.42 95 1021.2
20260502035539 45 73 3.0 9.0 0.01 0.42 0.42 95 1021.2
20260502035039 45 0 3.0 10.0 0.01 0.42 0.42 95 1021.2
20260502034549 45 0 2.0 12.0 0.01 0.42 0.42 95 1021.2
20260502034039 45 0 3.0 12.0 0.01 0.42 0.42 95 1021.2
20260502033539 45 70 2.0 8.0 0.01 0.42 0.42 95 1021.2
20260502033051 45 68 1.0 11.0 0.01 0.42 0.42 95 1021.2
20260502032538 45 0 3.0 11.0 0.01 0.42 0.42 95 1021.2
20260502032038 45 68 4.0 12.0 0.01 0.42 0.42 95 1021.2
20260502031551 45 72 4.0 13.0 0.01 0.42 0.42 95 1021.2
20260502031038 45 354 4.0 17.0 0.01 0.42 0.42 95 1021.2
20260502030539 46 64 5.0 17.0 0.01 0.42 0.42 95 1021.2
20260502030056 46 83 3.0 11.0 0.00 0.41 0.41 95 1021.2
20260502025539 46 84 1.0 11.0 0.00 0.41 0.41 95 1021.2
20260502025040 46 0 3.0 11.0 0.00 0.41 0.41 95 1021.2
20260502024551 47 278 2.0 9.0 0.02 0.41 0.41 95 1021.2
20260502024042 47 0 3.0 9.0 0.03 0.41 0.41 95 1021.2
20260502023541 47 77 1.0 8.0 0.03 0.41 0.41 95 1021.2
20260502023050 47 0 3.0 15.0 0.03 0.41 0.41 95 1021.2
20260502022539 47 67 0.0 15.0 0.03 0.41 0.41 95 1021.2
20260502022038 47 74 3.0 9.0 0.03 0.41 0.41 95 1021.2
20260502021554 47 26 2.0 9.0 0.03 0.41 0.41 95 1021.2
20260502021040 48 60 0.0 7.0 0.03 0.41 0.41 95 1021.2
20260502020543 48 73 1.0 9.0 0.03 0.41 0.41 95 1021.2
20260502020047 48 70 2.0 9.0 0.03 0.41 0.41 94 1021.2
20260502015539 48 0 0.0 4.0 0.03 0.41 0.41 94 1021.2
20260502015041 48 75 0.0 11.0 0.03 0.41 0.41 94 1021.2
20260502014553 48 0 1.0 11.0 0.01 0.39 0.39 94 1021.2
20260502014039 48 72 0.0 11.0 0.00 0.38 0.38 93 1021.2
20260502013539 49 322 4.0 11.0 0.00 0.38 0.38 92 1021.2
20260502013057 49 68 3.0 11.0 0.00 0.38 0.38 90 1021.2
20260502012539 49 70 0.0 7.0 0.00 0.38 0.38 90 1021.2
20260502012039 49 79 2.0 8.0 0.00 0.38 0.38 90 1021.2
20260502011556 49 86 3.0 8.0 0.00 0.38 0.38 91 1021.2
20260502011038 49 82 1.0 7.0 0.00 0.38 0.38 91 1021.2
20260502010539 49 60 3.0 9.0 0.00 0.38 0.38 91 1021.2
20260502010104 49 57 0.0 9.0 0.00 0.38 0.38 91 1021.2
20260502005539 49 46 3.0 9.0 0.00 0.38 0.38 90 1021.2
20260502005039 50 59 1.0 12.0 0.00 0.38 0.38 90 1021.2
20260502004547 50 70 3.0 12.0 0.00 0.38 0.38 89 1021.2
20260502004039 50 63 3.0 12.0 0.00 0.38 0.38 88 1021.2
20260502003538 50 0 3.0 12.0 0.00 0.38 0.38 87 1021.2
20260502003053 51 106 2.0 11.0 0.00 0.38 0.38 87 1021.2
20260502002539 51 106 3.0 11.0 0.00 0.38 0.38 87 1021.2